Showing default

UNISAT 5, 39421

Orbit data source: Space-Track

UNISAT 5, 39421 is a payload satellite owned by GAUSS SrI (IT) in SSO that was launched on Thu, 21 Nov 2013 UTC via a DNEPR launch vehicle from the Orenburg, Russia (OREN). Payload-class satellites include a variety of spacecraft equipped with specific instruments for various scientific and technological missions. These include communications satellites like Starlink; space stations such as the ISS; scientific satellites like the Hubble; Earth observation satellites from companies like Planet Labs, Umbra, and HawkEye 360; GPS; miniature CubeSats for education and research; and military/defense satellites.

Loading next visibility...
Identifier
39421, 2013-066F
Orbit
SSO
Country
Flag of ITIT
Related business
Manufacturer
GAUSS SrI
Mission
Non-operational Amateur Technology
Bus & Motor
UNISAT, Unknown motor
Mass
31 kg wet, ~19 kg dry
Launch date (UTC)
2013-11-21 (12 years ago)
Launch vehicle
DNEPR
Launch site
Orenburg, Russia (OREN)
Object type
Payload
Rocket body
Debris
Shape & HBR
Box + 4 Pan, 0.5 m
Radar Cross Section
0.238 m², Medium (>0.1 m² and < 1m²)

Expand to show TLE details & history
Last TLE update: 9 hours ago

TLE from 9 hours ago
0 UNISAT 5
1 39421U 13066F   25300.46611066  .00006512  00000-0  49041-3 0  9990
2 39421  97.6754 267.0309 0030959 156.7300 203.5335 15.02456961647696
Epoch: 2025-10-27T11:11Z
TLE epoch observation values (Epoch: 2025-10-27T11:11:11.961Z)
Latitude
0.00007°
Longitude
63.1635°
Altitude
582.088 km
Speed
7.559 km/s
True Right ascension
17h 48m 07s
True Declination
0° 00' 00"
Sunlit
Object was in daylight at epoch
Visualization orbit readout
Latitude
Unknown
Longitude
Unknown
Altitude
Unknown
Speed
Unknown
Apparent Right ascension
Unknown
Apparent Declination
Unknown
Sunlit
N/A
Visualization observer readout
Local Sidereal Time
15:52:29
Azimuth
Unknown
Elevation
Unknown
Doppler factor
Unknown
Orbital elements
Apogee altitude
577.792 km
Perigee altitude
534.855 km
Semi-major axis
6,934.461 km
Eccentricity
0.0031
Inclination
97.6754°
RAAN
267.0309°
Arg. of periapsis
156.73°
True anomaly
203.39235°
Mean anomaly
203.5335°
Eccentric anomaly
203.46287°
Mean motion
3.75858 °/min
Orbital period
95.78 mins
BSTAR
0.00049041
Loading maneuver chart data...
Computing Atmospheric mass density...
Loading historical data...
Loading historical data...
Loading historical data...
Loading historical data...
Loading historical data...
Loading historical data...
Loading historical data...

Documentation

Showing up to 5 results
|